Location: Unspecified
(0.0000°N, 0.0000°E)
Time: 13:34:19
(UTC+00:00)

Vanguard 2 - Pass Details

Date: 18 September 2019
Orbit: 554 x 2937 km, 32.9° (Epoch: 13 October)

Event Time Altitude Azimuth Distance (km) Brightness Sun altitude
Rises 21:55:34 0° 223° (SW) 6,231 12.4 -60.3°
Reaches altitude 10° 21:59:42 10° 217° (SW) 5,435 12.0 -61.4°
Enters shadow 22:05:16 25° 206° (SSW) 4,480 11.3 -62.7°
Maximum altitude 22:16:09 49° 147° (SSE) 3,501 - -65.5°
Drops below altitude 10° 22:31:50 10° 77° (ENE) 5,251 - -69.4°
Sets 22:35:40 0° 72° (ENE) 6,019 - -70.3°
